owner,sensor,date,latitude,longitude,vertical_datum,mass_concentration_of_oxygen_in_sea_water,qcFlag 
DISL,ioos:station:DISL:DISL:1,2009-04-01T00:00:00Z,30.2513,-88.0778,7.56,8.61,1111122 
DISL,ioos:station:DISL:DISL:1,2009-04-01T00:30:00Z,30.2513,-88.0778,7.42,8.78,1111122 
DISL,ioos:station:DISL:DISL:1,2009-04-01T01:00:00Z,30.2513,-88.0778,7.28,8.76,1111122 
DISL,ioos:station:DISL:DISL:1,2009-04-01T01:30:00Z,30.2513,-88.0778,7.24,9.09,1111122 
DISL,ioos:station:DISL:DISL:1,2009-04-01T02:00:00Z,30.2513,-88.0778,7.07,9.15,1111122 
DISL,ioos:station:DISL:DISL:1,2009-04-01T02:30:00Z,30.2513,-88.0778,7.03,9.68,1111122 
DISL,ioos:station:DISL:DISL:1,2009-04-01T03:00:00Z,30.2513,-88.0778,6.89,9.76,1111122 
DISL,ioos:station:DISL:DISL:1,2009-04-01T03:30:00Z,30.2513,-88.0778,6.78,9.91,1111122 
DISL,ioos:station:DISL:DISL:1,2009-04-01T04:00:00Z,30.2513,-88.0778,6.765,9.94,1111122 
DISL,ioos:station:DISL:DISL:1,2009-04-01T04:30:00Z,30.2513,-88.0778,6.602,10.18,1111122 
DISL,ioos:station:DISL:DISL:1,2009-04-01T05:00:00Z,30.2513,-88.0778,6.542,10.26,1111122 
DISL,ioos:station:DISL:DISL:1,2009-04-01T05:30:00Z,30.2513,-88.0778,6.563,10.21,1111122 
DISL,ioos:station:DISL:DISL:1,2009-04-01T06:00:00Z,30.2513,-88.0778,6.435,10.18,1111122 
DISL,ioos:station:DISL:DISL:1,2009-04-01T06:30:00Z,30.2513,-88.0778,6.324,10.16,1111122 
DISL,ioos:station:DISL:DISL:1,2009-04-01T07:00:00Z,30.2513,-88.0778,6.312,10.15,1111122 
DISL,ioos:station:DISL:DISL:1,2009-04-01T07:30:00Z,30.2513,-88.0778,6.27,10.15,1111122 
DISL,ioos:station:DISL:DISL:1,2009-04-01T08:00:00Z,30.2513,-88.0778,6.278,10.16,1111122 
DISL,ioos:station:DISL:DISL:1,2009-04-01T08:30:00Z,30.2513,-88.0778,6.233,10.08,1111122 
DISL,ioos:station:DISL:DISL:1,2009-04-01T09:00:00Z,30.2513,-88.0778,6.363,10.12,1111122 
DISL,ioos:station:DISL:DISL:1,2009-04-01T09:30:00Z,30.2513,-88.0778,6.319,10.0,1111122 
DISL,ioos:station:DISL:DISL:1,2009-04-01T10:00:00Z,30.2513,-88.0778,6.371,10.07,1111122 
DISL,ioos:station:DISL:DISL:1,2009-04-01T10:30:00Z,30.2513,-88.0778,6.437,10.02,1111122 
DISL,ioos:station:DISL:DISL:1,2009-04-01T11:00:00Z,30.2513,-88.0778,6.599,9.95,1111122 
DISL,ioos:station:DISL:DISL:1,2009-04-01T11:30:00Z,30.2513,-88.0778,6.506,10.1,1111122 
DISL,ioos:station:DISL:DISL:1,2009-04-01T12:00:00Z,30.2513,-88.0778,6.898,10.19,1111122 
DISL,ioos:station:DISL:DISL:1,2009-04-01T12:30:00Z,30.2513,-88.0778,7.31,10.31,1111122 
DISL,ioos:station:DISL:DISL:1,2009-04-01T13:00:00Z,30.2513,-88.0778,7.06,10.26,1111122 
DISL,ioos:station:DISL:DISL:1,2009-04-01T13:30:00Z,30.2513,-88.0778,6.61,10.21,1111122 
DISL,ioos:station:DISL:DISL:1,2009-04-01T14:00:00Z,30.2513,-88.0778,6.997,10.26,1111122 
DISL,ioos:station:DISL:DISL:1,2009-04-01T14:30:00Z,30.2513,-88.0778,7.27,10.3,1111122 
DISL,ioos:station:DISL:DISL:1,2009-04-01T15:00:00Z,30.2513,-88.0778,7.05,10.36,1111122 
DISL,ioos:station:DISL:DISL:1,2009-04-01T15:30:00Z,30.2513,-88.0778,6.966,10.35,1111122 
DISL,ioos:station:DISL:DISL:1,2009-04-01T16:00:00Z,30.2513,-88.0778,7.08,9.56,1111122 
DISL,ioos:station:DISL:DISL:1,2009-04-01T16:30:00Z,30.2513,-88.0778,7.15,9.18,1111122 
DISL,ioos:station:DISL:DISL:1,2009-04-01T17:00:00Z,30.2513,-88.0778,7.29,9.58,1111122 
DISL,ioos:station:DISL:DISL:1,2009-04-01T17:30:00Z,30.2513,-88.0778,7.36,9.58,1111122 
DISL,ioos:station:DISL:DISL:1,2009-04-01T18:00:00Z,30.2513,-88.0778,7.53,9.79,1111122 
DISL,ioos:station:DISL:DISL:1,2009-04-01T18:30:00Z,30.2513,-88.0778,7.63,9.64,1111122 
DISL,ioos:station:DISL:DISL:1,2009-04-01T19:00:00Z,30.2513,-88.0778,7.71,9.4,1111122 
DISL,ioos:station:DISL:DISL:1,2009-04-01T19:30:00Z,30.2513,-88.0778,7.75,9.06,1111122 
DISL,ioos:station:DISL:DISL:1,2009-04-01T20:00:00Z,30.2513,-88.0778,7.77,8.65,1111122 
DISL,ioos:station:DISL:DISL:1,2009-04-01T20:30:00Z,30.2513,-88.0778,7.86,8.72,1111122 
DISL,ioos:station:DISL:DISL:1,2009-04-01T21:00:00Z,30.2513,-88.0778,7.92,9.07,1111122 
DISL,ioos:station:DISL:DISL:1,2009-04-01T21:30:00Z,30.2513,-88.0778,7.93,8.92,1111122 
DISL,ioos:station:DISL:DISL:1,2009-04-01T22:00:00Z,30.2513,-88.0778,8.02,9.95,1111122 
DISL,ioos:station:DISL:DISL:1,2009-04-01T22:30:00Z,30.2513,-88.0778,8.03,10.07,1111122 
DISL,ioos:station:DISL:DISL:1,2009-04-01T23:00:00Z,30.2513,-88.0778,7.91,10.15,1111122 
DISL,ioos:station:DISL:DISL:1,2009-04-01T23:30:00Z,30.2513,-88.0778,7.23,10.2,1111122 
DISL,ioos:station:DISL:DISL:1,2009-04-02T00:00:00Z,30.2513,-88.0778,7.69,10.3,1111122 
DISL,ioos:station:DISL:DISL:1,2009-04-02T00:30:00Z,30.2513,-88.0778,7.65,10.28,1111122 
DISL,ioos:station:DISL:DISL:1,2009-04-02T01:00:00Z,30.2513,-88.0778,7.58,10.15,1111122 
DISL,ioos:station:DISL:DISL:1,2009-04-02T01:30:00Z,30.2513,-88.0778,7.41,10.2,1111122 
DISL,ioos:station:DISL:DISL:1,2009-04-02T02:00:00Z,30.2513,-88.0778,7.41,10.03,1111122 
DISL,ioos:station:DISL:DISL:1,2009-04-02T02:30:00Z,30.2513,-88.0778,7.31,9.94,1111122 
DISL,ioos:station:DISL:DISL:1,2009-04-02T03:00:00Z,30.2513,-88.0778,7.26,9.89,1111122 
DISL,ioos:station:DISL:DISL:1,2009-04-02T03:30:00Z,30.2513,-88.0778,7.09,9.91,1111122 
DISL,ioos:station:DISL:DISL:1,2009-04-02T04:00:00Z,30.2513,-88.0778,6.971,9.9,1111122 
DISL,ioos:station:DISL:DISL:1,2009-04-02T04:30:00Z,30.2513,-88.0778,6.827,9.99,1111122 
DISL,ioos:station:DISL:DISL:1,2009-04-02T05:00:00Z,30.2513,-88.0778,6.67,10.06,1111122 
DISL,ioos:station:DISL:DISL:1,2009-04-02T05:30:00Z,30.2513,-88.0778,6.582,10.04,1111122 
DISL,ioos:station:DISL:DISL:1,2009-04-02T06:00:00Z,30.2513,-88.0778,6.473,10.05,1111122 
DISL,ioos:station:DISL:DISL:1,2009-04-02T06:30:00Z,30.2513,-88.0778,6.461,10.03,1111122 
DISL,ioos:station:DISL:DISL:1,2009-04-02T07:00:00Z,30.2513,-88.0778,6.551,10.03,1111122 
DISL,ioos:station:DISL:DISL:1,2009-04-02T07:30:00Z,30.2513,-88.0778,6.559,10.02,1111122 
DISL,ioos:station:DISL:DISL:1,2009-04-02T08:00:00Z,30.2513,-88.0778,6.479,9.92,1111122 
DISL,ioos:station:DISL:DISL:1,2009-04-02T08:30:00Z,30.2513,-88.0778,6.458,10.0,1111122 
DISL,ioos:station:DISL:DISL:1,2009-04-02T09:00:00Z,30.2513,-88.0778,6.461,9.97,1111122 
DISL,ioos:station:DISL:DISL:1,2009-04-02T09:30:00Z,30.2513,-88.0778,6.387,9.93,1111122 
DISL,ioos:station:DISL:DISL:1,2009-04-02T10:00:00Z,30.2513,-88.0778,6.456,9.94,1111122 
DISL,ioos:station:DISL:DISL:1,2009-04-02T10:30:00Z,30.2513,-88.0778,6.489,9.91,1111122 
DISL,ioos:station:DISL:DISL:1,2009-04-02T11:00:00Z,30.2513,-88.0778,6.415,9.87,1111122 
DISL,ioos:station:DISL:DISL:1,2009-04-02T11:30:00Z,30.2513,-88.0778,6.464,9.68,1111122 
DISL,ioos:station:DISL:DISL:1,2009-04-02T12:00:00Z,30.2513,-88.0778,6.595,9.55,1111122 
DISL,ioos:station:DISL:DISL:1,2009-04-02T12:30:00Z,30.2513,-88.0778,6.656,9.5,1111122 
DISL,ioos:station:DISL:DISL:1,2009-04-02T13:00:00Z,30.2513,-88.0778,6.84,9.67,1111122 
DISL,ioos:station:DISL:DISL:1,2009-04-02T13:30:00Z,30.2513,-88.0778,6.902,9.62,1111122 
DISL,ioos:station:DISL:DISL:1,2009-04-02T14:00:00Z,30.2513,-88.0778,7.16,9.6,1111122 
DISL,ioos:station:DISL:DISL:1,2009-04-02T14:30:00Z,30.2513,-88.0778,7.11,9.48,1111122 
DISL,ioos:station:DISL:DISL:1,2009-04-02T15:00:00Z,30.2513,-88.0778,7.17,9.59,1111122 
DISL,ioos:station:DISL:DISL:1,2009-04-02T15:30:00Z,30.2513,-88.0778,7.1,9.54,1111122 
DISL,ioos:station:DISL:DISL:1,2009-04-02T16:00:00Z,30.2513,-88.0778,7.28,9.7,1111122 
DISL,ioos:station:DISL:DISL:1,2009-04-02T16:30:00Z,30.2513,-88.0778,7.6,9.81,1111122 
DISL,ioos:station:DISL:DISL:1,2009-04-02T17:00:00Z,30.2513,-88.0778,7.59,8.59,1111122 
DISL,ioos:station:DISL:DISL:1,2009-04-02T17:30:00Z,30.2513,-88.0778,7.74,8.65,1111122 
DISL,ioos:station:DISL:DISL:1,2009-04-02T18:00:00Z,30.2513,-88.0778,7.82,8.97,1111122 
DISL,ioos:station:DISL:DISL:1,2009-04-02T18:30:00Z,30.2513,-88.0778,7.88,8.78,1111122 
DISL,ioos:station:DISL:DISL:1,2009-04-02T19:00:00Z,30.2513,-88.0778,7.83,8.97,1111122 
DISL,ioos:station:DISL:DISL:1,2009-04-02T19:30:00Z,30.2513,-88.0778,7.77,9.1,1111122 
DISL,ioos:station:DISL:DISL:1,2009-04-02T20:00:00Z,30.2513,-88.0778,7.82,9.14,1111122 
DISL,ioos:station:DISL:DISL:1,2009-04-02T20:30:00Z,30.2513,-88.0778,7.88,9.21,1111122 
DISL,ioos:station:DISL:DISL:1,2009-04-02T21:00:00Z,30.2513,-88.0778,8.11,9.13,1111122 
DISL,ioos:station:DISL:DISL:1,2009-04-02T21:30:00Z,30.2513,-88.0778,8.29,9.23,1111122 
DISL,ioos:station:DISL:DISL:1,2009-04-02T22:00:00Z,30.2513,-88.0778,8.1,9.51,1111122 
DISL,ioos:station:DISL:DISL:1,2009-04-02T22:30:00Z,30.2513,-88.0778,8.23,9.33,1111122 
DISL,ioos:station:DISL:DISL:1,2009-04-02T23:00:00Z,30.2513,-88.0778,7.99,9.58,1111122 
DISL,ioos:station:DISL:DISL:1,2009-04-02T23:30:00Z,30.2513,-88.0778,7.88,9.85,1111122 
DISL,ioos:station:DISL:DISL:1,2009-04-03T00:00:00Z,30.2513,-88.0778,7.84,9.28,1111122 
DISL,ioos:station:DISL:DISL:1,2009-04-03T00:30:00Z,30.2513,-88.0778,7.76,9.05,1111122 
DISL,ioos:station:DISL:DISL:1,2009-04-03T01:00:00Z,30.2513,-88.0778,7.79,9.34,1111122 
DISL,ioos:station:DISL:DISL:1,2009-04-03T01:30:00Z,30.2513,-88.0778,7.87,9.49,1111122 
DISL,ioos:station:DISL:DISL:1,2009-04-03T02:00:00Z,30.2513,-88.0778,7.62,9.29,1111122 
DISL,ioos:station:DISL:DISL:1,2009-04-03T02:30:00Z,30.2513,-88.0778,7.7,9.26,1111122 
DISL,ioos:station:DISL:DISL:1,2009-04-03T03:00:00Z,30.2513,-88.0778,7.58,9.39,1111122 
DISL,ioos:station:DISL:DISL:1,2009-04-03T03:30:00Z,30.2513,-88.0778,7.36,9.11,1111122 
DISL,ioos:station:DISL:DISL:1,2009-04-03T04:00:00Z,30.2513,-88.0778,7.35,9.25,1111122 
DISL,ioos:station:DISL:DISL:1,2009-04-03T04:30:00Z,30.2513,-88.0778,7.27,9.5,1111122 
DISL,ioos:station:DISL:DISL:1,2009-04-03T05:00:00Z,30.2513,-88.0778,7.03,9.57,1111122 
DISL,ioos:station:DISL:DISL:1,2009-04-03T05:30:00Z,30.2513,-88.0778,6.895,9.29,1111122 
DISL,ioos:station:DISL:DISL:1,2009-04-03T06:00:00Z,30.2513,-88.0778,6.904,9.26,1111122 
DISL,ioos:station:DISL:DISL:1,2009-04-03T06:30:00Z,30.2513,-88.0778,6.864,9.66,1111122 
DISL,ioos:station:DISL:DISL:1,2009-04-03T07:00:00Z,30.2513,-88.0778,6.799,9.68,1111122 
DISL,ioos:station:DISL:DISL:1,2009-04-03T07:30:00Z,30.2513,-88.0778,6.738,9.66,1111122 
DISL,ioos:station:DISL:DISL:1,2009-04-03T08:00:00Z,30.2513,-88.0778,6.655,9.73,1111122 
DISL,ioos:station:DISL:DISL:1,2009-04-03T08:30:00Z,30.2513,-88.0778,6.592,9.7,1111122 
DISL,ioos:station:DISL:DISL:1,2009-04-03T09:00:00Z,30.2513,-88.0778,6.548,9.74,1111122 
DISL,ioos:station:DISL:DISL:1,2009-04-03T09:30:00Z,30.2513,-88.0778,6.492,9.64,1111122 
DISL,ioos:station:DISL:DISL:1,2009-04-03T10:00:00Z,30.2513,-88.0778,6.508,9.9,1111122 
DISL,ioos:station:DISL:DISL:1,2009-04-03T10:30:00Z,30.2513,-88.0778,6.514,9.9,1111122 
DISL,ioos:station:DISL:DISL:1,2009-04-03T11:00:00Z,30.2513,-88.0778,6.546,9.9,1111122 
DISL,ioos:station:DISL:DISL:1,2009-04-03T11:30:00Z,30.2513,-88.0778,6.508,9.93,1111122 
DISL,ioos:station:DISL:DISL:1,2009-04-03T12:00:00Z,30.2513,-88.0778,6.586,9.94,1111122 
DISL,ioos:station:DISL:DISL:1,2009-04-03T12:30:00Z,30.2513,-88.0778,6.614,10.03,1111122 
DISL,ioos:station:DISL:DISL:1,2009-04-03T13:00:00Z,30.2513,-88.0778,6.698,9.97,1111122 
DISL,ioos:station:DISL:DISL:1,2009-04-03T13:30:00Z,30.2513,-88.0778,6.784,10.01,1111122 
DISL,ioos:station:DISL:DISL:1,2009-04-03T14:00:00Z,30.2513,-88.0778,6.829,9.93,1111122 
DISL,ioos:station:DISL:DISL:1,2009-04-03T14:30:00Z,30.2513,-88.0778,6.943,9.94,1111122 
DISL,ioos:station:DISL:DISL:1,2009-04-03T15:00:00Z,30.2513,-88.0778,7.05,9.91,1111122 
DISL,ioos:station:DISL:DISL:1,2009-04-03T15:30:00Z,30.2513,-88.0778,7.09,9.9,1111122 
DISL,ioos:station:DISL:DISL:1,2009-04-03T16:00:00Z,30.2513,-88.0778,7.13,9.85,1111122 
DISL,ioos:station:DISL:DISL:1,2009-04-03T16:30:00Z,30.2513,-88.0778,7.27,9.86,1111122 
DISL,ioos:station:DISL:DISL:1,2009-04-03T17:00:00Z,30.2513,-88.0778,7.34,9.96,1111122 
DISL,ioos:station:DISL:DISL:1,2009-04-03T17:30:00Z,30.2513,-88.0778,7.44,9.97,1111122 
DISL,ioos:station:DISL:DISL:1,2009-04-03T18:00:00Z,30.2513,-88.0778,7.45,10.41,1111122 
DISL,ioos:station:DISL:DISL:1,2009-04-03T18:30:00Z,30.2513,-88.0778,7.51,10.59,1111122 
DISL,ioos:station:DISL:DISL:1,2009-04-03T19:00:00Z,30.2513,-88.0778,7.55,10.58,1111122 
DISL,ioos:station:DISL:DISL:1,2009-04-03T19:30:00Z,30.2513,-88.0778,7.61,10.7,1111122 
DISL,ioos:station:DISL:DISL:1,2009-04-03T20:00:00Z,30.2513,-88.0778,7.66,10.94,1111122 
DISL,ioos:station:DISL:DISL:1,2009-04-03T20:30:00Z,30.2513,-88.0778,7.65,11.02,1111122 
DISL,ioos:station:DISL:DISL:1,2009-04-03T21:00:00Z,30.2513,-88.0778,7.62,11.0,1111122 
DISL,ioos:station:DISL:DISL:1,2009-04-03T21:30:00Z,30.2513,-88.0778,7.66,10.86,1111122 
DISL,ioos:station:DISL:DISL:1,2009-04-03T22:00:00Z,30.2513,-88.0778,7.58,10.74,1111122 
DISL,ioos:station:DISL:DISL:1,2009-04-03T22:30:00Z,30.2513,-88.0778,7.55,10.7,1111122 
DISL,ioos:station:DISL:DISL:1,2009-04-03T23:00:00Z,30.2513,-88.0778,7.6,10.61,1111122 
DISL,ioos:station:DISL:DISL:1,2009-04-03T23:30:00Z,30.2513,-88.0778,7.56,10.62,1111122 
DISL,ioos:station:DISL:DISL:1,2009-04-04T00:00:00Z,30.2513,-88.0778,7.57,10.57,1111122 
DISL,ioos:station:DISL:DISL:1,2009-04-04T00:30:00Z,30.2513,-88.0778,7.54,10.45,1111122 
DISL,ioos:station:DISL:DISL:1,2009-04-04T01:00:00Z,30.2513,-88.0778,7.52,10.43,1111122 
DISL,ioos:station:DISL:DISL:1,2009-04-04T01:30:00Z,30.2513,-88.0778,7.49,10.42,1111122 
DISL,ioos:station:DISL:DISL:1,2009-04-04T02:00:00Z,30.2513,-88.0778,7.44,10.36,1111122 
DISL,ioos:station:DISL:DISL:1,2009-04-04T02:30:00Z,30.2513,-88.0778,7.38,10.27,1111122 
DISL,ioos:station:DISL:DISL:1,2009-04-04T03:00:00Z,30.2513,-88.0778,7.29,10.28,1111122 
DISL,ioos:station:DISL:DISL:1,2009-04-04T03:30:00Z,30.2513,-88.0778,7.21,10.1,1111122 
DISL,ioos:station:DISL:DISL:1,2009-04-04T04:00:00Z,30.2513,-88.0778,7.14,9.95,1111122 
DISL,ioos:station:DISL:DISL:1,2009-04-04T04:30:00Z,30.2513,-88.0778,7.15,9.65,1111122 
DISL,ioos:station:DISL:DISL:1,2009-04-04T05:00:00Z,30.2513,-88.0778,7.09,9.7,1111122 
DISL,ioos:station:DISL:DISL:1,2009-04-04T05:30:00Z,30.2513,-88.0778,6.956,9.7,1111122 
DISL,ioos:station:DISL:DISL:1,2009-04-04T06:00:00Z,30.2513,-88.0778,6.892,9.69,1111122 
DISL,ioos:station:DISL:DISL:1,2009-04-04T06:30:00Z,30.2513,-88.0778,6.791,9.71,1111122 
DISL,ioos:station:DISL:DISL:1,2009-04-04T07:00:00Z,30.2513,-88.0778,6.711,9.7,1111122 
DISL,ioos:station:DISL:DISL:1,2009-04-04T07:30:00Z,30.2513,-88.0778,6.704,9.71,1111122 
DISL,ioos:station:DISL:DISL:1,2009-04-04T08:00:00Z,30.2513,-88.0778,6.618,9.77,1111122 
DISL,ioos:station:DISL:DISL:1,2009-04-04T08:30:00Z,30.2513,-88.0778,6.58,9.83,1111122 
DISL,ioos:station:DISL:DISL:1,2009-04-04T09:00:00Z,30.2513,-88.0778,6.598,9.89,1111122 
DISL,ioos:station:DISL:DISL:1,2009-04-04T09:30:00Z,30.2513,-88.0778,6.525,9.97,1111122 
DISL,ioos:station:DISL:DISL:1,2009-04-04T10:00:00Z,30.2513,-88.0778,6.45,9.98,1111122 
DISL,ioos:station:DISL:DISL:1,2009-04-04T10:30:00Z,30.2513,-88.0778,6.496,9.86,1111122 
DISL,ioos:station:DISL:DISL:1,2009-04-04T11:00:00Z,30.2513,-88.0778,6.494,9.85,1111122 
DISL,ioos:station:DISL:DISL:1,2009-04-04T11:30:00Z,30.2513,-88.0778,6.538,9.87,1111122 
DISL,ioos:station:DISL:DISL:1,2009-04-04T12:00:00Z,30.2513,-88.0778,6.637,9.85,1111122 
DISL,ioos:station:DISL:DISL:1,2009-04-04T12:30:00Z,30.2513,-88.0778,6.657,9.82,1111122 
DISL,ioos:station:DISL:DISL:1,2009-04-04T13:00:00Z,30.2513,-88.0778,6.701,9.77,1111122 
DISL,ioos:station:DISL:DISL:1,2009-04-04T13:30:00Z,30.2513,-88.0778,6.745,9.81,1111122 
DISL,ioos:station:DISL:DISL:1,2009-04-04T14:00:00Z,30.2513,-88.0778,6.815,9.84,1111122 
DISL,ioos:station:DISL:DISL:1,2009-04-04T14:30:00Z,30.2513,-88.0778,6.853,9.82,1111122 
DISL,ioos:station:DISL:DISL:1,2009-04-04T15:00:00Z,30.2513,-88.0778,6.926,9.86,1111122 
DISL,ioos:station:DISL:DISL:1,2009-04-04T15:30:00Z,30.2513,-88.0778,7.02,9.91,1111122 
DISL,ioos:station:DISL:DISL:1,2009-04-04T16:00:00Z,30.2513,-88.0778,7.0,10.01,1111122 
DISL,ioos:station:DISL:DISL:1,2009-04-04T16:30:00Z,30.2513,-88.0778,7.17,9.88,1111122 
DISL,ioos:station:DISL:DISL:1,2009-04-04T17:00:00Z,30.2513,-88.0778,7.21,9.92,1111122 
DISL,ioos:station:DISL:DISL:1,2009-04-04T17:30:00Z,30.2513,-88.0778,7.27,9.92,1111122 
DISL,ioos:station:DISL:DISL:1,2009-04-04T18:00:00Z,30.2513,-88.0778,7.27,9.88,1111122 
DISL,ioos:station:DISL:DISL:1,2009-04-04T18:30:00Z,30.2513,-88.0778,7.34,9.9,1111122 
DISL,ioos:station:DISL:DISL:1,2009-04-04T19:00:00Z,30.2513,-88.0778,7.38,9.97,1111122 
DISL,ioos:station:DISL:DISL:1,2009-04-04T19:30:00Z,30.2513,-88.0778,7.49,10.01,1111122 
DISL,ioos:station:DISL:DISL:1,2009-04-04T20:00:00Z,30.2513,-88.0778,7.53,10.02,1111122 
DISL,ioos:station:DISL:DISL:1,2009-04-04T20:30:00Z,30.2513,-88.0778,7.57,10.05,1111122 
DISL,ioos:station:DISL:DISL:1,2009-04-04T21:00:00Z,30.2513,-88.0778,7.62,10.08,1111122 
DISL,ioos:station:DISL:DISL:1,2009-04-04T21:30:00Z,30.2513,-88.0778,7.71,10.12,1111122 
DISL,ioos:station:DISL:DISL:1,2009-04-04T22:00:00Z,30.2513,-88.0778,7.7,10.14,1111122 
DISL,ioos:station:DISL:DISL:1,2009-04-04T22:30:00Z,30.2513,-88.0778,7.72,10.16,1111122 
DISL,ioos:station:DISL:DISL:1,2009-04-04T23:00:00Z,30.2513,-88.0778,7.72,10.22,1111122 
DISL,ioos:station:DISL:DISL:1,2009-04-04T23:30:00Z,30.2513,-88.0778,7.72,10.22,1111122 
DISL,ioos:station:DISL:DISL:1,2009-04-05T00:00:00Z,30.2513,-88.0778,7.74,10.21,1111122 
DISL,ioos:station:DISL:DISL:1,2009-04-05T00:30:00Z,30.2513,-88.0778,7.75,10.21,1111122 
DISL,ioos:station:DISL:DISL:1,2009-04-05T01:00:00Z,30.2513,-88.0778,7.71,10.21,1111122 
DISL,ioos:station:DISL:DISL:1,2009-04-05T01:30:00Z,30.2513,-88.0778,7.63,10.19,1111122 
DISL,ioos:station:DISL:DISL:1,2009-04-05T02:00:00Z,30.2513,-88.0778,7.68,10.13,1111122 
DISL,ioos:station:DISL:DISL:1,2009-04-05T02:30:00Z,30.2513,-88.0778,7.61,10.12,1111122 
DISL,ioos:station:DISL:DISL:1,2009-04-05T03:00:00Z,30.2513,-88.0778,7.6,10.09,1111122 
DISL,ioos:station:DISL:DISL:1,2009-04-05T03:30:00Z,30.2513,-88.0778,7.47,10.02,1111122 
DISL,ioos:station:DISL:DISL:1,2009-04-05T04:00:00Z,30.2513,-88.0778,7.38,10.05,1111122 
DISL,ioos:station:DISL:DISL:1,2009-04-05T04:30:00Z,30.2513,-88.0778,7.32,9.98,1111122 
DISL,ioos:station:DISL:DISL:1,2009-04-05T05:00:00Z,30.2513,-88.0778,7.25,9.94,1111122 
DISL,ioos:station:DISL:DISL:1,2009-04-05T05:30:00Z,30.2513,-88.0778,7.18,9.89,1111122 
DISL,ioos:station:DISL:DISL:1,2009-04-05T06:00:00Z,30.2513,-88.0778,7.1,9.8,1111122 
DISL,ioos:station:DISL:DISL:1,2009-04-05T06:30:00Z,30.2513,-88.0778,6.991,9.69,1111122 
DISL,ioos:station:DISL:DISL:1,2009-04-05T07:00:00Z,30.2513,-88.0778,6.936,9.61,1111122 
DISL,ioos:station:DISL:DISL:1,2009-04-05T07:30:00Z,30.2513,-88.0778,6.851,9.64,1111122 
DISL,ioos:station:DISL:DISL:1,2009-04-05T08:00:00Z,30.2513,-88.0778,6.807,9.67,1111122 
DISL,ioos:station:DISL:DISL:1,2009-04-05T08:30:00Z,30.2513,-88.0778,6.754,9.68,1111122 
DISL,ioos:station:DISL:DISL:1,2009-04-05T09:00:00Z,30.2513,-88.0778,6.668,9.68,1111122 
DISL,ioos:station:DISL:DISL:1,2009-04-05T09:30:00Z,30.2513,-88.0778,6.7,9.65,1111122 
DISL,ioos:station:DISL:DISL:1,2009-04-05T10:00:00Z,30.2513,-88.0778,6.609,9.64,1111122 
DISL,ioos:station:DISL:DISL:1,2009-04-05T10:30:00Z,30.2513,-88.0778,6.573,9.65,1111122 
DISL,ioos:station:DISL:DISL:1,2009-04-05T11:00:00Z,30.2513,-88.0778,6.627,9.66,1111122 
DISL,ioos:station:DISL:DISL:1,2009-04-05T11:30:00Z,30.2513,-88.0778,6.647,9.65,1111122 
DISL,ioos:station:DISL:DISL:1,2009-04-05T12:00:00Z,30.2513,-88.0778,6.714,9.55,1111122 
DISL,ioos:station:DISL:DISL:1,2009-04-05T12:30:00Z,30.2513,-88.0778,6.724,9.5,1111122 
DISL,ioos:station:DISL:DISL:1,2009-04-05T13:00:00Z,30.2513,-88.0778,6.816,9.5,1111122 
DISL,ioos:station:DISL:DISL:1,2009-04-05T13:30:00Z,30.2513,-88.0778,6.807,9.46,1111122 
DISL,ioos:station:DISL:DISL:1,2009-04-05T14:00:00Z,30.2513,-88.0778,6.869,9.45,1111122 
DISL,ioos:station:DISL:DISL:1,2009-04-05T14:30:00Z,30.2513,-88.0778,6.909,9.37,1111122 
DISL,ioos:station:DISL:DISL:1,2009-04-05T15:00:00Z,30.2513,-88.0778,6.936,9.39,1111122 
DISL,ioos:station:DISL:DISL:1,2009-04-05T15:30:00Z,30.2513,-88.0778,6.971,9.47,1111122 
DISL,ioos:station:DISL:DISL:1,2009-04-05T16:00:00Z,30.2513,-88.0778,7.02,9.57,1111122 
DISL,ioos:station:DISL:DISL:1,2009-04-05T16:30:00Z,30.2513,-88.0778,7.08,9.49,1111122 
DISL,ioos:station:DISL:DISL:1,2009-04-05T17:00:00Z,30.2513,-88.0778,7.12,9.58,1111122 
DISL,ioos:station:DISL:DISL:1,2009-04-05T17:30:00Z,30.2513,-88.0778,7.23,9.54,1111122 
DISL,ioos:station:DISL:DISL:1,2009-04-05T18:00:00Z,30.2513,-88.0778,7.23,9.59,1111122 
DISL,ioos:station:DISL:DISL:1,2009-04-05T18:30:00Z,30.2513,-88.0778,7.22,9.57,1111122 
DISL,ioos:station:DISL:DISL:1,2009-04-05T19:00:00Z,30.2513,-88.0778,7.23,9.58,1111122 
DISL,ioos:station:DISL:DISL:1,2009-04-05T19:30:00Z,30.2513,-88.0778,7.27,9.61,1111122 
DISL,ioos:station:DISL:DISL:1,2009-04-05T20:00:00Z,30.2513,-88.0778,7.24,9.67,1111122 
DISL,ioos:station:DISL:DISL:1,2009-04-05T20:30:00Z,30.2513,-88.0778,7.23,9.63,1111122 
DISL,ioos:station:DISL:DISL:1,2009-04-05T21:00:00Z,30.2513,-88.0778,7.24,9.75,1111122 
DISL,ioos:station:DISL:DISL:1,2009-04-05T21:30:00Z,30.2513,-88.0778,7.3,8.96,1111122 
DISL,ioos:station:DISL:DISL:1,2009-04-05T22:00:00Z,30.2513,-88.0778,7.32,9.15,1111122 
DISL,ioos:station:DISL:DISL:1,2009-04-05T22:30:00Z,30.2513,-88.0778,7.39,8.36,1111122 
DISL,ioos:station:DISL:DISL:1,2009-04-05T23:00:00Z,30.2513,-88.0778,7.42,8.41,1111122 
DISL,ioos:station:DISL:DISL:1,2009-04-05T23:30:00Z,30.2513,-88.0778,7.47,7.91,1111122 
DISL,ioos:station:DISL:DISL:1,2009-04-06T00:00:00Z,30.2513,-88.0778,7.45,9.24,1111122 
DISL,ioos:station:DISL:DISL:1,2009-04-06T00:30:00Z,30.2513,-88.0778,7.35,9.56,1111122 
DISL,ioos:station:DISL:DISL:1,2009-04-06T01:00:00Z,30.2513,-88.0778,7.31,9.66,1111122 
DISL,ioos:station:DISL:DISL:1,2009-04-06T01:30:00Z,30.2513,-88.0778,7.28,9.82,1111122 
DISL,ioos:station:DISL:DISL:1,2009-04-06T02:00:00Z,30.2513,-88.0778,7.31,9.68,1111122 
DISL,ioos:station:DISL:DISL:1,2009-04-06T02:30:00Z,30.2513,-88.0778,7.26,9.84,1111122 
DISL,ioos:station:DISL:DISL:1,2009-04-06T03:00:00Z,30.2513,-88.0778,7.23,9.72,1111122 
DISL,ioos:station:DISL:DISL:1,2009-04-06T03:30:00Z,30.2513,-88.0778,7.15,9.49,1111122 
DISL,ioos:station:DISL:DISL:1,2009-04-06T04:00:00Z,30.2513,-88.0778,7.15,9.37,1111122 
DISL,ioos:station:DISL:DISL:1,2009-04-06T04:30:00Z,30.2513,-88.0778,7.06,9.1,1111122 
DISL,ioos:station:DISL:DISL:1,2009-04-06T05:00:00Z,30.2513,-88.0778,7.01,9.07,1111122 
DISL,ioos:station:DISL:DISL:1,2009-04-06T05:30:00Z,30.2513,-88.0778,6.939,9.19,1111122 
DISL,ioos:station:DISL:DISL:1,2009-04-06T06:00:00Z,30.2513,-88.0778,6.925,9.55,1111122 
DISL,ioos:station:DISL:DISL:1,2009-04-06T06:30:00Z,30.2513,-88.0778,6.891,9.68,1111122 
DISL,ioos:station:DISL:DISL:1,2009-04-06T07:00:00Z,30.2513,-88.0778,6.877,9.68,1111122 
DISL,ioos:station:DISL:DISL:1,2009-04-06T07:30:00Z,30.2513,-88.0778,6.752,9.63,1111122 
DISL,ioos:station:DISL:DISL:1,2009-04-06T08:00:00Z,30.2513,-88.0778,6.968,9.58,1111122 
DISL,ioos:station:DISL:DISL:1,2009-04-06T08:30:00Z,30.2513,-88.0778,6.623,9.53,1111122 
DISL,ioos:station:DISL:DISL:1,2009-04-06T09:00:00Z,30.2513,-88.0778,6.179,9.54,1111122 
DISL,ioos:station:DISL:DISL:1,2009-04-06T09:30:00Z,30.2513,-88.0778,6.714,9.51,1111122 
DISL,ioos:station:DISL:DISL:1,2009-04-06T10:00:00Z,30.2513,-88.0778,6.483,9.56,1111122 
DISL,ioos:station:DISL:DISL:1,2009-04-06T10:30:00Z,30.2513,-88.0778,6.546,9.68,1111122 
DISL,ioos:station:DISL:DISL:1,2009-04-06T11:00:00Z,30.2513,-88.0778,6.309,10.16,1111122 
DISL,ioos:station:DISL:DISL:1,2009-04-06T11:30:00Z,30.2513,-88.0778,6.855,10.13,1111122 
DISL,ioos:station:DISL:DISL:1,2009-04-06T12:00:00Z,30.2513,-88.0778,6.715,10.07,1111122 
DISL,ioos:station:DISL:DISL:1,2009-04-06T12:30:00Z,30.2513,-88.0778,6.37,10.19,1111122 
DISL,ioos:station:DISL:DISL:1,2009-04-06T13:00:00Z,30.2513,-88.0778,6.444,10.46,1111122 
DISL,ioos:station:DISL:DISL:1,2009-04-06T13:30:00Z,30.2513,-88.0778,6.265,10.56,1111122 
DISL,ioos:station:DISL:DISL:1,2009-04-06T14:00:00Z,30.2513,-88.0778,6.72,10.6,1111122 
DISL,ioos:station:DISL:DISL:1,2009-04-06T14:30:00Z,30.2513,-88.0778,6.971,10.66,1111122 
DISL,ioos:station:DISL:DISL:1,2009-04-06T15:00:00Z,30.2513,-88.0778,6.345,10.55,1111122 
DISL,ioos:station:DISL:DISL:1,2009-04-06T15:30:00Z,30.2513,-88.0778,6.754,10.45,1111122 